User: anonymous   Login
Location: Frydek-Mistek
(49.6830°N, 18.3330°E)
Time: 06:47:35
(UTC+01:00)
Language:

Courier 1B Rocket - Orbit

View from above orbital plane
View from above orbital plane
View from above satellite
View from above satellite

Ground track
Ground track

The orbit data is extracted from the following two-line orbital elements,

1 00059U 60013B   17020.75424051  .00000097  00000-0  96858-5 0  9999
2 00059  28.2492 126.6660 0189331 287.7322  70.2643 13.52946992778550
Epoch (UTC): 20 January 2017 18:06:06
Eccentricity: 0.0189331
inclination: 28.2492°
perigee height: 920 km
apogee height: 1202 km
right ascension of ascending node: 126.6660°
argument of perigee: 287.7322°
revolutions per day: 13.52946992
mean anomaly at epoch: 70.2643°
orbit number at epoch: 77855

The dashed part of the orbit path shows where the satellite is in the earth's shadow,  

DLR